Regional Weather Roundup
Issued by NWS Bismarck, ND

Home | Current Version | Previous Version | Text Only | Print | Product List | Glossary On
Versions: 1 2 3 4 5 6 7 8 9 10 11 12 13 14 15 16 17 18 19 20 21 22 23 24 25 26 27 28 29 30 31 32 33 34 35 36 37 38 39 40 41 42 43 44 45 46 47 48 49 50
000
ASUS43 KBIS 250610
RWRBIS

NWR BROADCAST TEXT
NATIONAL WEATHER SERVICE BISMARCK ND
100 AM CDT MON JUL 25 2016

NOTE: "FAIR" INDICATES FEW OR NO CLOUDS BELOW 12,000 FEET WITH NO
SIGNIFICANT WEATHER AND/OR OBSTRUCTIONS TO VISIBILITY.


CITY           SKY/WX    TMP DP  RH WIND       PRES   REMARKS
WILLISTON      CLEAR     66  57  72 N7        29.99S
MINOT          CLEAR     67  59  75 CALM      30.01R
MINOT AFB      CLEAR     62  57  86 SW5       30.00R
BISMARCK       CLEAR     64  59  83 SE5       30.04R
DICKINSON      CLEAR     61  53  75 S8        30.03S
GARRISON         N/A     62  59  90 CALM      30.02S
HETTINGER ARPT CLEAR     67  49  52 SE6       30.07S
JAMESTOWN      CLEAR     61  59  93 CALM      30.02S
CARRINGTON     FAIR      63  59  88 SW7       30.04S
HAZEN          FAIR      64  57  77 N3        30.04S
LINTON         FAIR      66  64  94 SE9       30.07R
MANDAN         FAIR      64  55  72 S8        30.05R
OAKES            N/A    N/A N/A N/A MISG        N/A
STANLEY        FAIR      63  63 100 E6        30.05S
WATFORD CITY     N/A    N/A N/A N/A MISG        N/A
$$

CITY           SKY/WX    TMP DP  RH WIND       PRES   REMARKS
GRAND FORKS    PTCLDY    63  59  87 W7        29.95S
GRAND FORKS AF PTCLDY    64  60  85 W7        29.97R
DEVILS LAKE    CLEAR     62  59  90 CALM      30.01R
FARGO          CLEAR     64  58  80 W7        29.98S
CAVALIER       FAIR      63  61  94 W6        29.95R
GRAFTON        FAIR      64  64 100 W8        29.97R
GWINNER        FAIR      63  57  82 W8        30.04R
LANGDON        FAIR      59  59 100 W7        30.00R
ROLLA            N/A     57  55  94 W6        30.02R
$$

CITY           SKY/WX    TMP DP  RH WIND       PRES   REMARKS
ABERDEEN       CLEAR     61  57  87 CALM      30.05S
MOBRIDGE       CLEAR     68  58  70 SE6       30.04S
BUFFALO          N/A     72  46  39 S20       29.99F
RAPID CITY     CLEAR     65  51  60 S8        30.12R
GLASGOW        CLEAR     65  51  60 SE6       29.97S
WOLF POINT     CLEAR     66  54  65 NE3       29.98S
GLENDIVE       CLEAR     72  49  44 S3        30.01S
MILES CITY     CLEAR     72  45  37 NE9       29.98F
BAKER          CLEAR     67  49  52 SE10      30.04F
$$

CITY           SKY/WX    TMP DP  RH WIND       PRES   REMARKS
BILLINGS       CLEAR     76  36  23 CALM      30.03S
GREAT FALLS    CLEAR     65  38  36 W9        30.03R
REGINA         CLEAR     61  55  82 SE7       30.00R
ESTEVAN        CLEAR     61  59  94 SE5       30.01S
$$




USA.gov is the U.S. government's official web portal to all federal, state and local government web resources and services.